�������l�o���
Date,Time,MP-1(��Sv/h),MP-2(��Sv/h),MP-3(��Sv/h),MP-4(��Sv/h),MP-5(��Sv/h),MP-6(��Sv/h),MP-7(��Sv/h),MP-8(��Sv/h),����,����(m/s),���J
2019/12/12,00:00,0.723,1.038,0.695,1.300,0.908,0.414,0.720,0.684,�k�k��,2.1,��
2019/12/12,00:10,0.726,1.037,0.696,1.301,0.910,0.413,0.720,0.684,�k,1.0,��
2019/12/12,00:20,0.726,1.037,0.695,1.300,0.909,0.414,0.721,0.683,�k,1.5,��
2019/12/12,00:30,0.724,1.039,0.694,1.302,0.909,0.414,0.722,0.683,�k�k��,1.2,��
2019/12/12,00:40,0.725,1.038,0.697,1.299,0.911,0.413,0.721,0.683,�k�k��,1.0,��
2019/12/12,00:50,0.726,1.038,0.696,1.302,0.909,0.414,0.722,0.683,�k,0.6,��
2019/12/12,01:00,0.726,1.038,0.696,1.299,0.908,0.416,0.722,0.684,-,CALM,��
2019/12/12,01:10,0.725,1.039,0.696,1.299,0.909,0.414,0.722,0.684,��,1.0,��
2019/12/12,01:20,0.723,1.038,0.697,1.300,0.911,0.413,0.722,0.683,-,CALM,��
2019/12/12,01:30,0.727,1.040,0.695,1.302,0.908,0.414,0.722,0.683,��쐼,1.2,��
2019/12/12,01:40,0.725,1.040,0.695,1.302,0.909,0.414,0.723,0.683,��쐼,1.2,��
2019/12/12,01:50,0.725,1.037,0.698,1.302,0.909,0.415,0.721,0.682,-,CALM,��
2019/12/12,02:00,0.724,1.036,0.694,1.302,0.907,0.415,0.721,0.682,-,CALM,��
2019/12/12,02:10,0.724,1.036,0.696,1.303,0.908,0.413,0.721,0.683,���쐼,0.7,��
2019/12/12,02:20,0.723,1.036,0.694,1.301,0.908,0.414,0.720,0.681,��,2.7,��
2019/12/12,02:30,0.723,1.035,0.694,1.300,0.907,0.413,0.722,0.680,���k��,8.0,��
2019/12/12,02:40,0.726,1.035,0.696,1.299,0.906,0.414,0.722,0.681,���k��,8.0,��
2019/12/12,02:50,0.725,1.035,0.697,1.302,0.906,0.413,0.721,0.682,���k��,8.5,��
2019/12/12,03:00,0.725,1.037,0.696,1.301,0.907,0.412,0.722,0.683,���k��,7.7,��
2019/12/12,03:10,0.724,1.035,0.696,1.304,0.908,0.414,0.723,0.682,���k��,7.7,��
2019/12/12,03:20,0.724,1.037,0.695,1.302,0.908,0.413,0.723,0.682,���k��,6.6,��
2019/12/12,03:30,0.723,1.037,0.695,1.301,0.906,0.413,0.722,0.682,�k��,5.8,��
2019/12/12,03:40,0.723,1.038,0.697,1.301,0.909,0.414,0.723,0.683,���k��,4.9,��
2019/12/12,03:50,0.724,1.037,0.696,1.302,0.909,0.414,0.722,0.682,�k�k��,3.6,��
2019/12/12,04:00,0.725,1.037,0.699,1.303,0.907,0.414,0.723,0.682,�k�k��,3.2,��
2019/12/12,04:10,0.726,1.039,0.697,1.303,0.909,0.414,0.722,0.683,�k�k��,3.9,��
2019/12/12,04:20,0.725,1.038,0.698,1.300,0.907,0.413,0.723,0.683,�k�k��,4.3,��
2019/12/12,04:30,0.724,1.038,0.697,1.300,0.908,0.413,0.722,0.683,�k,3.2,��
2019/12/12,04:40,0.723,1.038,0.696,1.301,0.907,0.414,0.722,0.682,�k,3.2,��
2019/12/12,04:50,0.726,1.037,0.697,1.300,0.908,0.413,0.722,0.684,�k,4.0,��
2019/12/12,05:00,0.726,1.038,0.696,1.299,0.909,0.414,0.722,0.682,�k�k��,3.8,��
2019/12/12,05:10,0.725,1.038,0.696,1.301,0.908,0.414,0.722,0.680,�k�k��,3.2,��
2019/12/12,05:20,0.724,1.037,0.696,1.301,0.907,0.412,0.720,0.681,�k�k��,2.9,��
2019/12/12,05:30,0.726,1.038,0.697,1.300,0.908,0.412,0.724,0.683,�k��,1.8,��
2019/12/12,05:40,0.726,1.037,0.697,1.304,0.907,0.414,0.721,0.682,��,1.0,��
2019/12/12,05:50,0.726,1.037,0.697,1.301,0.908,0.414,0.722,0.682,-,CALM,��
2019/12/12,06:00,0.726,1.035,0.698,1.301,0.909,0.415,0.722,0.683,��,1.0,��
2019/12/12,06:10,0.726,1.037,0.696,1.302,0.909,0.413,0.722,0.682,�k��,0.6,��
2019/12/12,06:20,0.724,1.037,0.696,1.302,0.909,0.414,0.722,0.681,�쓌,1.0,��
2019/12/12,06:30,0.724,1.035,0.694,1.299,0.907,0.414,0.722,0.682,���k��,1.6,��
2019/12/12,06:40,0.726,1.037,0.695,1.301,0.906,0.412,0.723,0.682,��,1.3,��
2019/12/12,06:50,0.726,1.037,0.696,1.299,0.908,0.415,0.723,0.683,��,1.6,��
2019/12/12,07:00,0.727,1.039,0.697,1.302,0.907,0.414,0.722,0.681,��,4.6,��
2019/12/12,07:10,0.726,1.037,0.699,1.301,0.907,0.415,0.723,0.683,���쐼,6.6,��
2019/12/12,07:20,0.725,1.037,0.696,1.299,0.907,0.413,0.724,0.682,��,8.2,��
2019/12/12,07:30,0.725,1.039,0.696,1.302,0.910,0.417,0.725,0.684,���쐼,9.4,��
2019/12/12,07:40,0.726,1.038,0.695,1.302,0.910,0.415,0.724,0.683,��,10.4,��
2019/12/12,07:50,0.726,1.038,0.697,1.303,0.907,0.414,0.724,0.682,���쐼,9.6,��
2019/12/12,08:00,0.725,1.039,0.693,1.301,0.909,0.415,0.723,0.684,���쐼,9.9,��
2019/12/12,08:10,0.726,1.040,0.696,1.302,0.910,0.415,0.724,0.681,���쐼,9.9,��
2019/12/12,08:20,0.728,1.038,0.697,1.302,0.910,0.416,0.724,0.684,���쐼,10.1,��
2019/12/12,08:30,0.727,1.039,0.696,1.300,0.911,0.416,0.722,0.684,���쐼,11.1,��
2019/12/12,08:40,0.730,1.038,0.698,1.302,0.910,0.415,0.723,0.684,���쐼,9.9,��
2019/12/12,08:50,0.727,1.036,0.696,1.304,0.910,0.415,0.723,0.684,���쐼,11.3,��
2019/12/12,09:00,0.728,1.035,0.697,1.303,0.909,0.416,0.723,0.685,��,13.0,��
2019/12/12,09:10,0.725,1.034,0.697,1.304,0.910,0.417,0.720,0.683,���쐼,9.7,��
2019/12/12,09:20,0.727,1.033,0.698,1.306,0.910,0.418,0.722,0.684,���쐼,12.5,��
2019/12/12,09:30,0.727,1.033,0.696,1.303,0.911,0.417,0.720,0.684,���쐼,11.3,��
2019/12/12,09:40,0.727,1.036,0.698,1.304,0.909,0.417,0.721,0.687,���쐼,12.4,��
2019/12/12,09:50,0.726,1.031,0.698,1.303,0.909,0.417,0.722,0.685,���쐼,10.2,��
2019/12/12,10:00,0.727,1.033,0.697,1.304,0.909,0.417,0.722,0.684,���쐼,10.5,��
2019/12/12,10:10,0.726,1.035,0.697,1.305,0.909,0.416,0.720,0.682,��,11.2,��
2019/12/12,10:20,0.725,1.035,0.695,1.303,0.909,0.417,0.721,0.683,��,10.7,��
2019/12/12,10:30,0.725,1.033,0.696,1.304,0.908,0.415,0.722,0.684,��,9.6,��
2019/12/12,10:40,0.724,1.036,0.696,1.306,0.911,0.415,0.721,0.685,��,12.3,��
2019/12/12,10:50,0.725,1.035,0.696,1.302,0.909,0.416,0.722,0.683,��,13.3,��
2019/12/12,11:00,0.724,1.036,0.696,1.305,0.906,0.414,0.722,0.684,��,10.8,��
2019/12/12,11:10,0.725,1.037,0.695,1.305,0.907,0.415,0.721,0.684,��,12.7,��
2019/12/12,11:20,0.725,1.036,0.698,1.304,0.911,0.414,0.723,0.684,��,11.6,��
2019/12/12,11:30,0.727,1.031,0.697,1.304,0.911,0.414,0.722,0.684,��,11.1,��
2019/12/12,11:40,0.725,1.037,0.697,1.305,0.913,0.414,0.721,0.684,��,10.8,��
2019/12/12,11:50,0.725,1.033,0.697,1.305,0.915,0.415,0.721,0.684,��,12.3,��
2019/12/12,12:00,0.725,1.038,0.697,1.305,0.914,0.416,0.721,0.684,��,9.9,��
2019/12/12,12:10,0.726,1.038,0.697,1.306,0.912,0.416,0.721,0.683,��,12.2,��
2019/12/12,12:20,0.724,1.039,0.698,1.308,0.913,0.418,0.721,0.685,��,13.5,��
2019/12/12,12:30,0.725,1.038,0.697,1.306,0.915,0.418,0.722,0.684,��,13.4,��
2019/12/12,12:40,0.725,1.041,0.697,1.306,0.913,0.415,0.721,0.682,���k��,11.3,��
2019/12/12,12:50,0.726,1.040,0.698,1.305,0.912,0.414,0.720,0.682,��,9.6,��
2019/12/12,13:00,0.723,1.038,0.698,1.306,0.914,0.416,0.719,0.681,��,10.8,��
2019/12/12,13:10,0.724,1.040,0.697,1.306,0.913,0.415,0.721,0.683,��,8.5,��
2019/12/12,13:20,0.724,1.037,0.697,1.308,0.913,0.414,0.720,0.679,��,11.0,��
2019/12/12,13:30,0.727,1.037,0.696,1.305,0.916,0.416,0.722,0.682,��,9.7,��
2019/12/12,13:40,0.724,1.039,0.697,1.306,0.914,0.417,0.720,0.682,��,10.5,��
2019/12/12,13:50,0.728,1.040,0.697,1.308,0.912,0.415,0.720,0.681,��,9.4,��
2019/12/12,14:00,0.726,1.040,0.697,1.308,0.915,0.417,0.719,0.683,���k��,9.9,��
2019/12/12,14:10,0.726,1.041,0.697,1.309,0.915,0.416,0.721,0.679,��,5.0,��
2019/12/12,14:20,0.727,1.038,0.698,1.306,0.914,0.415,0.721,0.681,��,8.3,��
2019/12/12,14:30,0.728,1.039,0.696,1.307,0.915,0.414,0.720,0.682,��,9.1,��
2019/12/12,14:40,0.725,1.038,0.698,1.309,0.913,0.416,0.720,0.684,��,7.7,��
2019/12/12,14:50,0.725,1.041,0.698,1.307,0.914,0.416,0.719,0.683,���쐼,7.4,��
2019/12/12,15:00,0.725,1.046,0.698,1.310,0.913,0.416,0.723,0.684,��,8.3,��
2019/12/12,15:10,0.725,1.043,0.697,1.310,0.916,0.417,0.720,0.683,��,8.8,��
2019/12/12,15:20,0.726,1.044,0.700,1.309,0.917,0.416,0.722,0.684,���k��,5.7,��
2019/12/12,15:30,0.724,1.042,0.699,1.307,0.915,0.416,0.720,0.686,���쐼,4.3,��
2019/12/12,15:40,0.724,1.044,0.698,1.307,0.912,0.417,0.723,0.682,���k��,3.9,��
2019/12/12,15:50,0.724,1.046,0.697,1.306,0.911,0.415,0.721,0.684,�k�k��,4.2,��
2019/12/12,16:00,0.722,1.045,0.698,1.308,0.910,0.416,0.720,0.684,�k��,6.3,�L
2019/12/12,16:10,0.723,1.044,0.696,1.308,0.911,0.416,0.720,0.684,�k��,6.4,��
2019/12/12,16:20,0.723,1.047,0.698,1.310,0.915,0.414,0.722,0.684,�k��,6.4,�L
2019/12/12,16:30,0.726,1.046,0.700,1.308,0.913,0.414,0.720,0.683,�k��,7.7,�L
2019/12/12,16:40,0.726,1.045,0.697,1.309,0.914,0.417,0.720,0.684,�k��,7.7,�L
2019/12/12,16:50,0.725,1.042,0.698,1.308,0.915,0.415,0.720,0.684,�k��,6.7,�L
2019/12/12,17:00,0.723,1.045,0.698,1.309,0.914,0.416,0.721,0.682,�k��,6.9,��
2019/12/12,17:10,0.725,1.044,0.699,1.306,0.914,0.413,0.721,0.684,�k��,7.7,��
2019/12/12,17:20,0.724,1.046,0.697,1.307,0.915,0.414,0.719,0.683,�k��,8.5,�L
2019/12/12,17:30,0.724,1.045,0.698,1.308,0.913,0.415,0.719,0.682,�k��,8.0,��
2019/12/12,17:40,0.723,1.046,0.697,1.307,0.913,0.413,0.721,0.682,�k��,7.7,��
2019/12/12,17:50,0.722,1.046,0.697,1.306,0.913,0.413,0.719,0.682,�k��,8.8,��
2019/12/12,18:00,0.723,1.046,0.698,1.307,0.911,0.414,0.721,0.682,�k��,7.7,��
2019/12/12,18:10,0.725,1.045,0.697,1.309,0.912,0.412,0.720,0.684,�k��,6.6,�L
2019/12/12,18:20,0.724,1.044,0.696,1.306,0.913,0.412,0.721,0.683,�k��,4.9,��
2019/12/12,18:30,0.722,1.044,0.698,1.306,0.912,0.413,0.723,0.681,�k�k��,5.3,��
2019/12/12,18:40,0.724,1.046,0.695,1.304,0.914,0.412,0.720,0.682,�k�k��,5.8,��
2019/12/12,18:50,0.720,1.045,0.698,1.307,0.912,0.411,0.721,0.682,�k�k��,6.6,��
2019/12/12,19:00,0.722,1.043,0.697,1.306,0.912,0.412,0.720,0.681,�k�k��,6.0,��
2019/12/12,19:10,0.722,1.044,0.695,1.305,0.911,0.413,0.722,0.684,�k�k��,5.5,��
2019/12/12,19:20,0.722,1.043,0.697,1.306,0.912,0.411,0.721,0.683,�k�k��,5.5,��
2019/12/12,19:30,0.723,1.043,0.696,1.307,0.912,0.411,0.720,0.682,�k�k��,6.3,��
2019/12/12,19:40,0.721,1.045,0.696,1.306,0.911,0.411,0.719,0.682,�k�k��,4.7,�L
2019/12/12,19:50,0.723,1.044,0.697,1.309,0.912,0.411,0.720,0.682,�k�k��,4.0,�L
2019/12/12,20:00,0.721,1.042,0.696,1.307,0.913,0.412,0.719,0.682,�k�k��,3.2,�L
2019/12/12,20:10,0.721,1.043,0.697,1.306,0.913,0.410,0.718,0.682,�k�k��,3.9,�L
2019/12/12,20:20,0.722,1.043,0.696,1.307,0.914,0.411,0.721,0.682,�k�k��,2.7,�L
2019/12/12,20:30,0.721,1.044,0.698,1.304,0.913,0.411,0.720,0.681,�k��,2.1,��
2019/12/12,20:40,0.721,1.043,0.695,1.304,0.912,0.410,0.719,0.681,�k�k��,2.5,��
2019/12/12,20:50,0.721,1.044,0.696,1.306,0.910,0.411,0.720,0.682,�k,2.7,��
2019/12/12,21:00,0.720,1.042,0.696,1.306,0.912,0.411,0.718,0.682,�k�k��,2.3,��
2019/12/12,21:10,0.720,1.041,0.695,1.304,0.909,0.410,0.720,0.682,�k�k��,3.4,��
2019/12/12,21:20,0.722,1.041,0.695,1.306,0.912,0.410,0.721,0.680,�k�k��,2.4,��
2019/12/12,21:30,0.722,1.041,0.694,1.306,0.911,0.411,0.719,0.683,�k�k��,3.3,��
2019/12/12,21:40,0.719,1.041,0.696,1.304,0.910,0.411,0.718,0.680,�k�k��,3.5,��
2019/12/12,21:50,0.721,1.042,0.694,1.305,0.912,0.409,0.719,0.681,�k�k��,3.0,��
2019/12/12,22:00,0.721,1.042,0.695,1.304,0.910,0.409,0.719,0.682,�k�k��,3.1,��
2019/12/12,22:10,0.721,1.041,0.696,1.307,0.910,0.409,0.719,0.681,�k��,4.3,��
2019/12/12,22:20,0.720,1.042,0.695,1.305,0.911,0.410,0.720,0.681,�k��,5.5,��
2019/12/12,22:30,0.719,1.044,0.695,1.305,0.910,0.411,0.720,0.682,�k��,4.9,��
2019/12/12,22:40,0.719,1.042,0.696,1.305,0.911,0.409,0.718,0.681,�k��,4.0,��
2019/12/12,22:50,0.721,1.041,0.695,1.306,0.910,0.410,0.720,0.683,�k��,3.5,��
2019/12/12,23:00,0.719,1.043,0.695,1.307,0.910,0.409,0.720,0.682,�k��,4.2,��
2019/12/12,23:10,0.721,1.042,0.698,1.305,0.913,0.411,0.720,0.682,�k�k��,2.4,��
2019/12/12,23:20,0.721,1.041,0.694,1.302,0.912,0.411,0.720,0.683,�k��,6.6,��
2019/12/12,23:30,0.720,1.040,0.696,1.304,0.910,0.410,0.721,0.682,�k��,6.3,��
2019/12/12,23:40,0.719,1.042,0.696,1.306,0.911,0.409,0.721,0.682,�k��,4.9,��
2019/12/12,23:50,0.719,1.039,0.695,1.304,0.909,0.409,0.720,0.680,�k��,5.7,��
